Year,Month,Day,Hour,Minute,Value (Times are PST for temperature in C)
2013,03,29,00,00,6.60
2013,03,29,00,01,6.60
2013,03,29,00,02,6.60
2013,03,29,00,03,6.60
2013,03,29,00,04,6.60
2013,03,29,00,05,6.60
2013,03,29,00,06,6.60
2013,03,29,00,07,6.70
2013,03,29,00,08,6.70
2013,03,29,00,09,6.70
2013,03,29,00,10,6.70
2013,03,29,00,11,6.70
2013,03,29,00,12,6.70
2013,03,29,00,13,6.80
2013,03,29,00,14,6.80
2013,03,29,00,15,6.80
2013,03,29,00,16,6.80
2013,03,29,00,17,6.80
2013,03,29,00,18,6.80
2013,03,29,00,19,6.80
2013,03,29,00,20,6.80
2013,03,29,00,21,6.70
2013,03,29,00,22,6.70
2013,03,29,00,23,6.70
2013,03,29,00,24,6.60
2013,03,29,00,25,6.60
2013,03,29,00,26,6.60
2013,03,29,00,27,6.60
2013,03,29,00,28,6.60
2013,03,29,00,29,6.60
2013,03,29,00,30,6.60
2013,03,29,00,31,6.60
2013,03,29,00,32,6.60
2013,03,29,00,33,6.60
2013,03,29,00,34,6.60
2013,03,29,00,35,6.60
2013,03,29,00,36,6.60
2013,03,29,00,37,6.60
2013,03,29,00,38,6.60
2013,03,29,00,39,6.60
2013,03,29,00,40,6.60
2013,03,29,00,41,6.60
2013,03,29,00,42,6.60
2013,03,29,00,43,6.60
2013,03,29,00,44,6.60
2013,03,29,00,45,6.60
2013,03,29,00,46,6.60
2013,03,29,00,47,6.60
2013,03,29,00,48,6.60
2013,03,29,00,49,6.60
2013,03,29,00,50,6.70
2013,03,29,00,51,6.70
2013,03,29,00,52,6.70
2013,03,29,00,53,6.80
2013,03,29,00,54,6.80
2013,03,29,00,55,6.80
2013,03,29,00,56,6.80
2013,03,29,00,57,6.80
2013,03,29,00,58,6.80
2013,03,29,00,59,6.80
2013,03,29,01,00,6.70
2013,03,29,01,01,6.70
2013,03,29,01,02,6.70
2013,03,29,01,03,6.70
2013,03,29,01,04,6.70
2013,03,29,01,05,6.80
2013,03,29,01,06,6.80
2013,03,29,01,07,6.80
2013,03,29,01,08,6.80
2013,03,29,01,09,6.90
2013,03,29,01,10,6.90
2013,03,29,01,11,6.90
2013,03,29,01,12,6.90
2013,03,29,01,13,6.80
2013,03,29,01,14,6.80
2013,03,29,01,15,6.80
2013,03,29,01,16,6.80
2013,03,29,01,17,6.80
2013,03,29,01,18,6.80
2013,03,29,01,19,6.70
2013,03,29,01,20,6.70
2013,03,29,01,21,6.60
2013,03,29,01,22,6.60
2013,03,29,01,23,6.50
2013,03,29,01,24,6.40
2013,03,29,01,25,6.40
2013,03,29,01,26,6.40
2013,03,29,01,27,6.40
2013,03,29,01,28,6.30
2013,03,29,01,29,6.30
2013,03,29,01,30,6.30
2013,03,29,01,31,6.30
2013,03,29,01,32,6.30
2013,03,29,01,33,6.30
2013,03,29,01,34,6.30
2013,03,29,01,35,6.30
2013,03,29,01,36,6.30
2013,03,29,01,37,6.30
2013,03,29,01,38,6.30
2013,03,29,01,39,6.20
2013,03,29,01,40,6.20
2013,03,29,01,41,6.20
2013,03,29,01,42,6.20
2013,03,29,01,43,6.20
2013,03,29,01,44,6.20
2013,03,29,01,45,6.20
2013,03,29,01,46,6.20
2013,03,29,01,47,6.20
2013,03,29,01,48,6.20
2013,03,29,01,49,6.20
2013,03,29,01,50,6.20
2013,03,29,01,51,6.20
2013,03,29,01,52,6.20
2013,03,29,01,53,6.20
2013,03,29,01,54,6.20
2013,03,29,01,55,6.20
2013,03,29,01,56,6.20
2013,03,29,01,57,6.20
2013,03,29,01,58,6.20
2013,03,29,01,59,6.20
2013,03,29,02,00,6.20
2013,03,29,02,01,6.20
2013,03,29,02,02,6.20
2013,03,29,02,03,6.20
2013,03,29,02,04,6.20
2013,03,29,02,05,6.20
2013,03,29,02,06,6.20
2013,03,29,02,07,6.20
2013,03,29,02,08,6.30
2013,03,29,02,09,6.30
2013,03,29,02,10,6.20
2013,03,29,02,11,6.20
2013,03,29,02,12,6.20
2013,03,29,02,13,6.20
2013,03,29,02,14,6.20
2013,03,29,02,15,6.30
2013,03,29,02,16,6.30
2013,03,29,02,17,6.40
2013,03,29,02,18,6.40
2013,03,29,02,19,6.40
2013,03,29,02,20,6.40
2013,03,29,02,21,6.40
2013,03,29,02,22,6.40
2013,03,29,02,23,6.40
2013,03,29,02,24,6.60
2013,03,29,02,25,6.60
2013,03,29,02,26,6.60
2013,03,29,02,27,6.60
2013,03,29,02,28,6.70
2013,03,29,02,29,6.70
2013,03,29,02,30,6.60
2013,03,29,02,31,6.60
2013,03,29,02,32,6.60
2013,03,29,02,33,6.70
2013,03,29,02,34,6.70
2013,03,29,02,35,6.70
2013,03,29,02,36,6.70
2013,03,29,02,37,6.70
2013,03,29,02,38,6.70
2013,03,29,02,39,6.70
2013,03,29,02,40,6.70
2013,03,29,02,41,6.60
2013,03,29,02,42,6.60
2013,03,29,02,43,6.60
2013,03,29,02,44,6.60
2013,03,29,02,45,6.60
2013,03,29,02,46,6.60
2013,03,29,02,47,6.60
2013,03,29,02,48,6.60
2013,03,29,02,49,6.60
2013,03,29,02,50,6.60
2013,03,29,02,51,6.60
2013,03,29,02,52,6.60
2013,03,29,02,53,6.60
2013,03,29,02,54,6.60
2013,03,29,02,55,6.50
2013,03,29,02,56,6.40
2013,03,29,02,57,6.40
2013,03,29,02,58,6.40
2013,03,29,02,59,6.40
2013,03,29,03,00,6.40
2013,03,29,03,01,6.40
2013,03,29,03,02,6.30
2013,03,29,03,03,6.30
2013,03,29,03,04,6.30
2013,03,29,03,05,6.40
2013,03,29,03,06,6.40
2013,03,29,03,07,6.40
2013,03,29,03,08,6.40
2013,03,29,03,09,6.40
2013,03,29,03,10,6.40
2013,03,29,03,11,6.40
2013,03,29,03,12,6.40
2013,03,29,03,13,6.40
2013,03,29,03,14,6.40
2013,03,29,03,15,6.30
2013,03,29,03,16,6.30
2013,03,29,03,17,6.30
2013,03,29,03,18,6.20
2013,03,29,03,19,6.20
2013,03,29,03,20,6.20
2013,03,29,03,21,6.10
2013,03,29,03,22,6.10
2013,03,29,03,23,6.10
2013,03,29,03,24,6.00
2013,03,29,03,25,6.00
2013,03,29,03,26,6.00
2013,03,29,03,27,6.00
2013,03,29,03,28,6.00
2013,03,29,03,29,6.00
2013,03,29,03,30,6.00
2013,03,29,03,31,6.00
2013,03,29,03,32,6.00
2013,03,29,03,33,6.00
2013,03,29,03,34,6.00
2013,03,29,03,35,6.00
2013,03,29,03,36,6.00
2013,03,29,03,37,5.90
2013,03,29,03,38,5.90
2013,03,29,03,39,6.00
2013,03,29,03,40,6.00
2013,03,29,03,41,6.00
2013,03,29,03,42,5.90
2013,03,29,03,43,5.90
2013,03,29,03,44,5.90
2013,03,29,03,45,5.80
2013,03,29,03,46,5.80
2013,03,29,03,47,5.70
2013,03,29,03,48,5.70
2013,03,29,03,49,5.70
2013,03,29,03,50,5.60
2013,03,29,03,51,5.60
2013,03,29,03,52,5.50
2013,03,29,03,53,5.50
2013,03,29,03,54,5.40
2013,03,29,03,55,5.40
2013,03,29,03,56,5.30
2013,03,29,03,57,5.30
2013,03,29,03,58,5.30
2013,03,29,03,59,5.30
2013,03,29,04,00,5.30
2013,03,29,04,01,5.20
2013,03,29,04,02,5.20
2013,03,29,04,03,5.20
2013,03,29,04,04,5.10
2013,03,29,04,05,5.10
2013,03,29,04,06,5.10
2013,03,29,04,07,5.10
2013,03,29,04,08,5.10
2013,03,29,04,09,5.00
2013,03,29,04,10,4.90
2013,03,29,04,11,4.90
2013,03,29,04,12,4.90
2013,03,29,04,13,4.90
2013,03,29,04,14,4.90
2013,03,29,04,15,4.90
2013,03,29,04,16,5.10
2013,03,29,04,17,5.10
2013,03,29,04,18,5.10
2013,03,29,04,19,5.10
2013,03,29,04,20,5.10
2013,03,29,04,21,5.10
2013,03,29,04,22,5.10
2013,03,29,04,23,5.10
2013,03,29,04,24,5.10
2013,03,29,04,25,5.10
2013,03,29,04,26,5.10
2013,03,29,04,27,5.00
2013,03,29,04,28,4.90
2013,03,29,04,29,4.90
2013,03,29,04,30,4.90
2013,03,29,04,31,4.90
2013,03,29,04,32,4.90
2013,03,29,04,33,4.90
2013,03,29,04,34,4.90
2013,03,29,04,35,4.90
2013,03,29,04,36,4.90
2013,03,29,04,37,4.90
2013,03,29,04,38,4.90
2013,03,29,04,39,4.90
2013,03,29,04,40,4.90
2013,03,29,04,41,4.90
2013,03,29,04,42,4.90
2013,03,29,04,43,4.90
2013,03,29,04,44,4.90
2013,03,29,04,45,4.90
2013,03,29,04,46,4.90
2013,03,29,04,47,4.90
2013,03,29,04,48,4.90
2013,03,29,04,49,4.90
2013,03,29,04,50,4.80
2013,03,29,04,51,4.80
2013,03,29,04,52,4.80
2013,03,29,04,53,4.80
2013,03,29,04,54,4.70
2013,03,29,04,55,4.70
2013,03,29,04,56,4.70
2013,03,29,04,57,4.70
2013,03,29,04,58,4.70
2013,03,29,04,59,4.70
2013,03,29,05,00,4.60
2013,03,29,05,01,4.60
2013,03,29,05,02,4.60
2013,03,29,05,03,4.60
2013,03,29,05,04,4.60
2013,03,29,05,05,4.70
2013,03,29,05,06,4.80
2013,03,29,05,07,5.00
2013,03,29,05,08,5.20
2013,03,29,05,09,5.40
2013,03,29,05,10,5.60
2013,03,29,05,11,5.80
2013,03,29,05,12,6.00
2013,03,29,05,13,6.10
2013,03,29,05,14,6.00
2013,03,29,05,15,6.00
2013,03,29,05,16,5.90
2013,03,29,05,17,5.90
2013,03,29,05,18,6.00
2013,03,29,05,19,6.20
2013,03,29,05,20,6.30
2013,03,29,05,21,6.50
2013,03,29,05,22,6.70
2013,03,29,05,23,6.80
2013,03,29,05,24,6.90
2013,03,29,05,25,6.90
2013,03,29,05,26,7.00
2013,03,29,05,27,6.90
2013,03,29,05,28,6.90
2013,03,29,05,29,6.90
2013,03,29,05,30,6.90
2013,03,29,05,31,7.00
2013,03,29,05,32,7.10
2013,03,29,05,33,7.00
2013,03,29,05,34,7.00
2013,03,29,05,35,6.80
2013,03,29,05,36,6.60
2013,03,29,05,37,6.40
2013,03,29,05,38,6.20
2013,03,29,05,39,6.00
2013,03,29,05,40,5.90
2013,03,29,05,41,5.80
2013,03,29,05,42,5.70
2013,03,29,05,43,5.60
2013,03,29,05,44,5.50
2013,03,29,05,45,5.50
2013,03,29,05,46,5.40
2013,03,29,05,47,5.40
2013,03,29,05,48,5.40
2013,03,29,05,49,5.40
2013,03,29,05,50,5.30
2013,03,29,05,51,5.30
2013,03,29,05,52,5.30
2013,03,29,05,53,5.30
2013,03,29,05,54,5.20
2013,03,29,05,55,5.10
2013,03,29,05,56,5.10
2013,03,29,05,57,5.10
2013,03,29,05,58,5.10
2013,03,29,05,59,5.10
2013,03,29,06,00,5.10
2013,03,29,06,01,5.10
2013,03,29,06,02,5.10
2013,03,29,06,03,5.10
2013,03,29,06,04,5.10
2013,03,29,06,05,5.20
2013,03,29,06,06,5.20
2013,03,29,06,07,5.20
2013,03,29,06,08,5.20
2013,03,29,06,09,5.20
2013,03,29,06,10,5.20
2013,03,29,06,11,5.20
2013,03,29,06,12,5.20
2013,03,29,06,13,5.20
2013,03,29,06,14,5.20
2013,03,29,06,15,5.20
2013,03,29,06,16,5.30
2013,03,29,06,17,5.30
2013,03,29,06,18,5.30
2013,03,29,06,19,5.30
2013,03,29,06,20,5.30
2013,03,29,06,21,5.40
2013,03,29,06,22,5.60
2013,03,29,06,23,5.60
2013,03,29,06,24,5.60
2013,03,29,06,25,5.60
2013,03,29,06,26,5.60
2013,03,29,06,27,5.50
2013,03,29,06,28,5.50
2013,03,29,06,29,5.50
2013,03,29,06,30,5.50
2013,03,29,06,31,5.50
2013,03,29,06,32,5.50
2013,03,29,06,33,5.40
2013,03,29,06,34,5.40
2013,03,29,06,35,5.40
2013,03,29,06,36,5.30
2013,03,29,06,37,5.30
2013,03,29,06,38,5.30
2013,03,29,06,39,5.30
2013,03,29,06,40,5.30
2013,03,29,06,41,5.20
2013,03,29,06,42,5.20
2013,03,29,06,43,5.10
2013,03,29,06,44,5.10
2013,03,29,06,45,5.10
2013,03,29,06,46,5.10
2013,03,29,06,47,5.00
2013,03,29,06,48,4.90
2013,03,29,06,49,4.90
2013,03,29,06,50,4.90
2013,03,29,06,51,4.90
2013,03,29,06,52,4.90
2013,03,29,06,53,4.90
2013,03,29,06,54,5.00
2013,03,29,06,55,5.10
2013,03,29,06,56,5.10
2013,03,29,06,57,5.00
2013,03,29,06,58,4.90
2013,03,29,06,59,4.90
2013,03,29,07,00,4.90
2013,03,29,07,01,4.90
2013,03,29,07,02,5.10
2013,03,29,07,03,5.10
2013,03,29,07,04,5.10
2013,03,29,07,05,5.20
2013,03,29,07,06,5.30
2013,03,29,07,07,5.30
2013,03,29,07,08,5.30
2013,03,29,07,09,5.30
2013,03,29,07,10,5.30
2013,03,29,07,11,5.30
2013,03,29,07,12,5.30
2013,03,29,07,13,5.30
2013,03,29,07,14,5.20
2013,03,29,07,15,5.20
2013,03,29,07,16,5.20
2013,03,29,07,17,5.20
2013,03,29,07,18,5.20
2013,03,29,07,19,5.20
2013,03,29,07,20,5.30
2013,03,29,07,21,5.30
2013,03,29,07,22,5.40
2013,03,29,07,23,5.40
2013,03,29,07,24,5.40
2013,03,29,07,25,5.30
2013,03,29,07,26,5.30
2013,03,29,07,27,5.30
2013,03,29,07,28,5.30
2013,03,29,07,29,5.30
2013,03,29,07,30,5.30
2013,03,29,07,31,5.30
2013,03,29,07,32,5.30
2013,03,29,07,33,5.30
2013,03,29,07,34,5.30
2013,03,29,07,35,5.30
2013,03,29,07,36,5.30
2013,03,29,07,37,5.30
2013,03,29,07,38,5.40
2013,03,29,07,39,5.40
2013,03,29,07,40,5.40
2013,03,29,07,41,5.40
2013,03,29,07,42,5.40
2013,03,29,07,43,5.50
2013,03,29,07,44,5.50
2013,03,29,07,45,5.50
2013,03,29,07,46,5.50
2013,03,29,07,47,5.50
2013,03,29,07,48,5.60
2013,03,29,07,49,5.60
2013,03,29,07,50,5.60
2013,03,29,07,51,5.70
2013,03,29,07,52,5.70
2013,03,29,07,53,5.80
2013,03,29,07,54,5.90
2013,03,29,07,55,5.90
2013,03,29,07,56,5.90
2013,03,29,07,57,6.00
2013,03,29,07,58,6.00
2013,03,29,07,59,6.00
2013,03,29,08,00,6.00
2013,03,29,08,01,6.10
2013,03,29,08,02,6.10
2013,03,29,08,03,6.10
2013,03,29,08,04,6.20
2013,03,29,08,05,6.20
2013,03,29,08,06,6.20
2013,03,29,08,07,6.20
2013,03,29,08,08,6.20
2013,03,29,08,09,6.20
2013,03,29,08,10,6.20
2013,03,29,08,11,6.20
2013,03,29,08,12,6.20
2013,03,29,08,13,6.30
2013,03,29,08,14,6.30
2013,03,29,08,15,6.30
2013,03,29,08,16,6.30
2013,03,29,08,17,6.40
2013,03,29,08,18,6.40
2013,03,29,08,19,6.40
2013,03,29,08,20,6.40
2013,03,29,08,21,6.50
2013,03,29,08,22,6.60
2013,03,29,08,23,6.60
2013,03,29,08,24,6.60
2013,03,29,08,25,6.60
2013,03,29,08,26,6.70
2013,03,29,08,27,6.70
2013,03,29,08,28,6.70
2013,03,29,08,29,6.70
2013,03,29,08,30,6.70
2013,03,29,08,31,6.70
2013,03,29,08,32,6.70
2013,03,29,08,33,6.70
2013,03,29,08,34,6.70
2013,03,29,08,35,6.80
2013,03,29,08,36,6.80
2013,03,29,08,37,6.80
2013,03,29,08,38,6.80
2013,03,29,08,39,6.80
2013,03,29,08,40,6.80
2013,03,29,08,41,6.80
2013,03,29,08,42,6.80
2013,03,29,08,43,6.80
2013,03,29,08,44,6.80
2013,03,29,08,45,6.80
2013,03,29,08,46,6.80
2013,03,29,08,47,6.80
2013,03,29,08,48,6.80
2013,03,29,08,49,6.90
2013,03,29,08,50,6.90
2013,03,29,08,51,7.00
2013,03,29,08,52,7.00
2013,03,29,08,53,7.10
2013,03,29,08,54,7.10
2013,03,29,08,55,7.20
2013,03,29,08,56,7.30
2013,03,29,08,57,7.30
2013,03,29,08,58,7.30
2013,03,29,08,59,7.30
2013,03,29,09,00,7.30
2013,03,29,09,01,7.40
2013,03,29,09,02,7.50
2013,03,29,09,03,7.50
2013,03,29,09,04,7.60
2013,03,29,09,05,7.70
2013,03,29,09,06,7.80
2013,03,29,09,07,7.80
2013,03,29,09,08,7.90
2013,03,29,09,09,7.90
2013,03,29,09,10,8.00
2013,03,29,09,11,8.00
2013,03,29,09,12,8.00
2013,03,29,09,13,8.10
2013,03,29,09,14,8.20
2013,03,29,09,15,8.30
2013,03,29,09,16,8.40
2013,03,29,09,17,8.50
2013,03,29,09,18,8.60
2013,03,29,09,19,8.60
2013,03,29,09,20,8.60
2013,03,29,09,21,8.70
2013,03,29,09,22,8.70
2013,03,29,09,23,8.90
2013,03,29,09,24,8.90
2013,03,29,09,25,9.00
2013,03,29,09,26,9.10
2013,03,29,09,27,9.10
2013,03,29,09,28,9.20
2013,03,29,09,29,9.20
2013,03,29,09,30,9.40
2013,03,29,09,31,9.50
2013,03,29,09,32,9.60
2013,03,29,09,33,9.70
2013,03,29,09,34,9.70
2013,03,29,09,35,9.70
2013,03,29,09,36,9.70
2013,03,29,09,37,9.70
2013,03,29,09,38,9.70
2013,03,29,09,39,9.70
2013,03,29,09,40,9.80
2013,03,29,09,41,9.80
2013,03,29,09,42,9.80
2013,03,29,09,43,9.90
2013,03,29,09,44,9.90
2013,03,29,09,45,9.90
2013,03,29,09,46,10.00
2013,03,29,09,47,10.10
2013,03,29,09,48,10.10
2013,03,29,09,49,10.20
2013,03,29,09,50,10.30
2013,03,29,09,51,10.40
2013,03,29,09,52,10.40
2013,03,29,09,53,10.50
2013,03,29,09,54,10.60
2013,03,29,09,55,10.60
2013,03,29,09,56,10.60
2013,03,29,09,57,10.70
2013,03,29,09,58,10.70
2013,03,29,09,59,10.70
2013,03,29,10,00,10.70
2013,03,29,10,01,10.80
2013,03,29,10,02,10.80
2013,03,29,10,03,10.70
2013,03,29,10,04,10.70
2013,03,29,10,05,10.70
2013,03,29,10,06,10.70
2013,03,29,10,07,10.60
2013,03,29,10,08,10.50
2013,03,29,10,09,10.40
2013,03,29,10,10,10.30
2013,03,29,10,11,10.20
2013,03,29,10,12,10.20
2013,03,29,10,13,10.20
2013,03,29,10,14,10.20
2013,03,29,10,15,10.10
2013,03,29,10,16,10.10
2013,03,29,10,17,10.10
2013,03,29,10,18,10.10
2013,03,29,10,19,10.00
2013,03,29,10,20,9.90
2013,03,29,10,21,9.90
2013,03,29,10,22,9.90
2013,03,29,10,23,9.90
2013,03,29,10,24,9.90
2013,03,29,10,25,9.90
2013,03,29,10,26,10.00
2013,03,29,10,27,10.00
2013,03,29,10,28,9.90
2013,03,29,10,29,9.90
2013,03,29,10,30,9.90
2013,03,29,10,31,9.90
2013,03,29,10,32,9.90
2013,03,29,10,33,9.90
2013,03,29,10,34,10.00
2013,03,29,10,35,10.10
2013,03,29,10,36,10.20
2013,03,29,10,37,10.10
2013,03,29,10,38,10.10
2013,03,29,10,39,10.00
2013,03,29,10,40,9.90
2013,03,29,10,41,9.90
2013,03,29,10,42,9.90
2013,03,29,10,43,9.90
2013,03,29,10,44,9.90
2013,03,29,10,45,9.90
2013,03,29,10,46,10.00
2013,03,29,10,47,10.10
2013,03,29,10,48,10.10
2013,03,29,10,49,10.00
2013,03,29,10,50,10.10
2013,03,29,10,51,10.20
2013,03,29,10,52,10.30
2013,03,29,10,53,10.30
2013,03,29,10,54,10.30
2013,03,29,10,55,10.40
2013,03,29,10,56,10.60
2013,03,29,10,57,10.70
2013,03,29,10,58,10.80
2013,03,29,10,59,10.90
2013,03,29,11,00,10.90
2013,03,29,11,01,10.90
2013,03,29,11,02,10.80
2013,03,29,11,03,10.70
2013,03,29,11,04,10.70
2013,03,29,11,05,10.70
2013,03,29,11,06,10.60
2013,03,29,11,07,10.60
2013,03,29,11,08,10.60
2013,03,29,11,09,10.60
2013,03,29,11,10,10.40
2013,03,29,11,11,10.40
2013,03,29,11,12,10.40
2013,03,29,11,13,10.40
2013,03,29,11,14,10.40
2013,03,29,11,15,10.40
2013,03,29,11,16,10.30
2013,03,29,11,17,10.20
2013,03,29,11,18,10.10
2013,03,29,11,19,10.10
2013,03,29,11,20,10.00
2013,03,29,11,21,10.00
2013,03,29,11,22,10.10
2013,03,29,11,23,10.10
2013,03,29,11,24,10.10
2013,03,29,11,25,10.00
2013,03,29,11,26,9.90
2013,03,29,11,27,9.90
2013,03,29,11,28,9.90
2013,03,29,11,29,10.00
2013,03,29,11,30,10.10
2013,03,29,11,31,10.20
2013,03,29,11,32,10.30
2013,03,29,11,33,10.30
2013,03,29,11,34,10.30
2013,03,29,11,35,10.20
2013,03,29,11,36,10.20
2013,03,29,11,37,10.30
2013,03,29,11,38,10.40
2013,03,29,11,39,10.50
2013,03,29,11,40,10.60
2013,03,29,11,41,10.60
2013,03,29,11,42,10.60
2013,03,29,11,43,10.60
2013,03,29,11,44,10.60
2013,03,29,11,45,10.60
2013,03,29,11,46,10.60
2013,03,29,11,47,10.60
2013,03,29,11,48,10.70
2013,03,29,11,49,10.90
2013,03,29,11,50,10.90
2013,03,29,11,51,10.90
2013,03,29,11,52,10.90
2013,03,29,11,53,10.90
2013,03,29,11,54,10.90
2013,03,29,11,55,10.90
2013,03,29,11,56,10.90
2013,03,29,11,57,11.00
2013,03,29,11,58,11.10
2013,03,29,11,59,11.10
2013,03,29,12,00,11.10
2013,03,29,12,01,11.20
2013,03,29,12,02,11.30
2013,03,29,12,03,11.40
2013,03,29,12,04,11.50
2013,03,29,12,05,11.60
2013,03,29,12,06,11.70
2013,03,29,12,07,11.80
2013,03,29,12,08,11.80
2013,03,29,12,09,11.80
2013,03,29,12,10,11.90
2013,03,29,12,11,12.00
2013,03,29,12,12,12.20
2013,03,29,12,13,12.30
2013,03,29,12,14,12.40
2013,03,29,12,15,12.50
2013,03,29,12,16,12.60
2013,03,29,12,17,12.70
2013,03,29,12,18,12.80
2013,03,29,12,19,13.00
2013,03,29,12,20,13.10
2013,03,29,12,21,13.20
2013,03,29,12,22,13.30
2013,03,29,12,23,13.20
2013,03,29,12,24,13.00
2013,03,29,12,25,12.60
2013,03,29,12,26,12.20
2013,03,29,12,27,12.00
2013,03,29,12,28,11.70
2013,03,29,12,29,11.40
2013,03,29,12,30,11.20
2013,03,29,12,31,11.10
2013,03,29,12,32,11.10
2013,03,29,12,33,11.00
2013,03,29,12,34,10.90
2013,03,29,12,35,10.90
2013,03,29,12,36,10.90
2013,03,29,12,37,10.90
2013,03,29,12,38,10.90
2013,03,29,12,39,10.90
2013,03,29,12,40,11.00
2013,03,29,12,41,11.10
2013,03,29,12,42,11.20
2013,03,29,12,43,11.30
2013,03,29,12,44,11.30
2013,03,29,12,45,11.30
2013,03,29,12,46,11.20
2013,03,29,12,47,11.10
2013,03,29,12,48,11.20
2013,03,29,12,49,11.20
2013,03,29,12,50,11.20
2013,03,29,12,51,11.20
2013,03,29,12,52,11.20
2013,03,29,12,53,11.20
2013,03,29,12,54,11.30
2013,03,29,12,55,11.40
2013,03,29,12,56,11.40
2013,03,29,12,57,11.40
2013,03,29,12,58,11.50
2013,03,29,12,59,11.60
2013,03,29,13,00,11.60
2013,03,29,13,01,11.60
2013,03,29,13,02,11.70
2013,03,29,13,03,11.80
2013,03,29,13,04,11.90
2013,03,29,13,05,11.90
2013,03,29,13,06,12.00
2013,03,29,13,07,12.00
2013,03,29,13,08,12.00
2013,03,29,13,09,11.90
2013,03,29,13,10,11.80
2013,03,29,13,11,11.80
2013,03,29,13,12,11.80
2013,03,29,13,13,11.90
2013,03,29,13,14,11.90
2013,03,29,13,15,12.00
2013,03,29,13,16,12.10
2013,03,29,13,17,12.20
2013,03,29,13,18,12.20
2013,03,29,13,19,12.20
2013,03,29,13,20,12.20
2013,03,29,13,21,12.10
2013,03,29,13,22,12.10
2013,03,29,13,23,12.10
2013,03,29,13,24,12.10
2013,03,29,13,25,12.20
2013,03,29,13,26,12.20
2013,03,29,13,27,12.20
2013,03,29,13,28,12.20
2013,03,29,13,29,12.30
2013,03,29,13,30,12.30
2013,03,29,13,31,12.40
2013,03,29,13,32,12.50
2013,03,29,13,33,12.60
2013,03,29,13,34,12.50
2013,03,29,13,35,12.60
2013,03,29,13,36,12.60
2013,03,29,13,37,12.50
2013,03,29,13,38,12.40
2013,03,29,13,39,12.30
2013,03,29,13,40,12.30
2013,03,29,13,41,12.40
2013,03,29,13,42,12.50
2013,03,29,13,43,12.60
2013,03,29,13,44,12.70
2013,03,29,13,45,12.80
2013,03,29,13,46,12.80
2013,03,29,13,47,12.80
2013,03,29,13,48,12.80
2013,03,29,13,49,12.90
2013,03,29,13,50,13.00
2013,03,29,13,51,13.20
2013,03,29,13,52,13.30
2013,03,29,13,53,13.30
2013,03,29,13,54,13.30
2013,03,29,13,55,13.40
2013,03,29,13,56,13.40
2013,03,29,13,57,13.30
2013,03,29,13,58,13.30
2013,03,29,13,59,13.30
2013,03,29,14,00,13.40
2013,03,29,14,01,13.40
2013,03,29,14,02,13.50
2013,03,29,14,03,13.60
2013,03,29,14,04,13.60
2013,03,29,14,05,13.60
2013,03,29,14,06,13.70
2013,03,29,14,07,13.70
2013,03,29,14,08,13.80
2013,03,29,14,09,13.90
2013,03,29,14,10,13.90
2013,03,29,14,11,14.00
2013,03,29,14,12,14.00
2013,03,29,14,13,14.00
2013,03,29,14,14,13.90
2013,03,29,14,15,13.90
2013,03,29,14,16,13.70
2013,03,29,14,17,13.60
2013,03,29,14,18,13.50
2013,03,29,14,19,13.40
2013,03,29,14,20,13.50
2013,03,29,14,21,13.60
2013,03,29,14,22,13.60
2013,03,29,14,23,13.70
2013,03,29,14,24,13.60
2013,03,29,14,25,13.60
2013,03,29,14,26,13.60
2013,03,29,14,27,13.50
2013,03,29,14,28,13.60
2013,03,29,14,29,13.60
2013,03,29,14,30,13.60
2013,03,29,14,31,13.50
2013,03,29,14,32,13.60
2013,03,29,14,33,13.60
2013,03,29,14,34,13.70
2013,03,29,14,35,13.80
2013,03,29,14,36,13.80
2013,03,29,14,37,13.80
2013,03,29,14,38,13.80
2013,03,29,14,39,13.80
2013,03,29,14,40,13.90
2013,03,29,14,41,13.90
2013,03,29,14,42,14.00
2013,03,29,14,43,14.10
2013,03,29,14,44,14.00
2013,03,29,14,45,14.00
2013,03,29,14,46,14.10
2013,03,29,14,47,14.20
2013,03,29,14,48,14.30
2013,03,29,14,49,14.30
2013,03,29,14,50,14.30
2013,03,29,14,51,14.30
2013,03,29,14,52,14.40
2013,03,29,14,53,14.40
2013,03,29,14,54,14.50
2013,03,29,14,55,14.50
2013,03,29,14,56,14.50
2013,03,29,14,57,14.50
2013,03,29,14,58,14.50
2013,03,29,14,59,14.50
2013,03,29,15,00,14.60
2013,03,29,15,01,14.60
2013,03,29,15,02,14.50
2013,03,29,15,03,14.40
2013,03,29,15,04,14.20
2013,03,29,15,05,14.20
2013,03,29,15,06,14.20
2013,03,29,15,07,14.20
2013,03,29,15,08,14.20
2013,03,29,15,09,14.20
2013,03,29,15,10,14.20
2013,03,29,15,11,14.20
2013,03,29,15,12,14.20
2013,03,29,15,13,14.20
2013,03,29,15,14,14.20
2013,03,29,15,15,14.20
2013,03,29,15,16,14.20
2013,03,29,15,17,14.00
2013,03,29,15,18,14.00
2013,03,29,15,19,14.00
2013,03,29,15,20,14.10
2013,03,29,15,21,14.10
2013,03,29,15,22,14.10
2013,03,29,15,23,14.10
2013,03,29,15,24,14.10
2013,03,29,15,25,14.20
2013,03,29,15,26,14.20
2013,03,29,15,27,14.20
2013,03,29,15,28,14.20
2013,03,29,15,29,14.20
2013,03,29,15,30,14.20
2013,03,29,15,31,14.10
2013,03,29,15,32,14.00
2013,03,29,15,33,13.90
2013,03,29,15,34,13.80
2013,03,29,15,35,13.80
2013,03,29,15,36,13.80
2013,03,29,15,37,13.70
2013,03,29,15,38,13.70
2013,03,29,15,39,13.70
2013,03,29,15,40,13.70
2013,03,29,15,41,13.70
2013,03,29,15,42,13.70
2013,03,29,15,43,13.70
2013,03,29,15,44,13.60
2013,03,29,15,45,13.60
2013,03,29,15,46,13.60
2013,03,29,15,47,13.60
2013,03,29,15,48,13.60
2013,03,29,15,49,13.60
2013,03,29,15,50,13.60
2013,03,29,15,51,13.50
2013,03,29,15,52,13.50
2013,03,29,15,53,13.50
2013,03,29,15,54,13.50
2013,03,29,15,55,13.60
2013,03,29,15,56,13.70
2013,03,29,15,57,13.80
2013,03,29,15,58,13.90
2013,03,29,15,59,13.90
2013,03,29,16,00,13.90
2013,03,29,16,01,13.90
2013,03,29,16,02,13.90
2013,03,29,16,03,13.90
2013,03,29,16,04,13.90
2013,03,29,16,05,14.00
2013,03,29,16,06,14.00
2013,03,29,16,07,14.10
2013,03,29,16,08,14.20
2013,03,29,16,09,14.20
2013,03,29,16,10,14.30
2013,03,29,16,11,14.30
2013,03,29,16,12,14.20
2013,03,29,16,13,14.20
2013,03,29,16,14,14.20
2013,03,29,16,15,14.20
2013,03,29,16,16,14.30
2013,03,29,16,17,14.20
2013,03,29,16,18,14.20
2013,03,29,16,19,14.20
2013,03,29,16,20,14.20
2013,03,29,16,21,14.20
2013,03,29,16,22,14.10
2013,03,29,16,23,14.00
2013,03,29,16,24,14.00
2013,03,29,16,25,14.00
2013,03,29,16,26,13.90
2013,03,29,16,27,13.90
2013,03,29,16,28,13.90
2013,03,29,16,29,13.90
2013,03,29,16,30,13.90
2013,03,29,16,31,13.90
2013,03,29,16,32,13.90
2013,03,29,16,33,14.00
2013,03,29,16,34,14.00
2013,03,29,16,35,14.10
2013,03,29,16,36,14.10
2013,03,29,16,37,14.20
2013,03,29,16,38,14.30
2013,03,29,16,39,14.30
2013,03,29,16,40,14.20
2013,03,29,16,41,14.20
2013,03,29,16,42,14.20
2013,03,29,16,43,14.20
2013,03,29,16,44,14.30
2013,03,29,16,45,14.40
2013,03,29,16,46,14.50
2013,03,29,16,47,14.50
2013,03,29,16,48,14.50
2013,03,29,16,49,14.30
2013,03,29,16,50,14.20
2013,03,29,16,51,14.20
2013,03,29,16,52,14.20
2013,03,29,16,53,14.10
2013,03,29,16,54,14.10
2013,03,29,16,55,14.10
2013,03,29,16,56,14.20
2013,03,29,16,57,14.30
2013,03,29,16,58,14.40
2013,03,29,16,59,14.50
2013,03,29,17,00,14.60
2013,03,29,17,01,14.80
2013,03,29,17,02,14.80
2013,03,29,17,03,14.80
2013,03,29,17,04,14.70
2013,03,29,17,05,14.60
2013,03,29,17,06,14.50
2013,03,29,17,07,14.50
2013,03,29,17,08,14.60
2013,03,29,17,09,14.60
2013,03,29,17,10,14.70
2013,03,29,17,11,14.70
2013,03,29,17,12,14.70
2013,03,29,17,13,14.60
2013,03,29,17,14,14.60
2013,03,29,17,15,14.60
2013,03,29,17,16,14.50
2013,03,29,17,17,14.50
2013,03,29,17,18,14.50
2013,03,29,17,19,14.50
2013,03,29,17,20,14.40
2013,03,29,17,21,14.40
2013,03,29,17,22,14.40
2013,03,29,17,23,14.30
2013,03,29,17,24,14.30
2013,03,29,17,25,14.20
2013,03,29,17,26,14.20
2013,03,29,17,27,14.20
2013,03,29,17,28,14.20
2013,03,29,17,29,14.20
2013,03,29,17,30,14.20
2013,03,29,17,31,14.20
2013,03,29,17,32,14.30
2013,03,29,17,33,14.30
2013,03,29,17,34,14.40
2013,03,29,17,35,14.40
2013,03,29,17,36,14.40
2013,03,29,17,37,14.40
2013,03,29,17,38,14.30
2013,03,29,17,39,14.30
2013,03,29,17,40,14.30
2013,03,29,17,41,14.30
2013,03,29,17,42,14.40
2013,03,29,17,43,14.40
2013,03,29,17,44,14.50
2013,03,29,17,45,14.50